[[{"header":{"parameterUnit":"m.s-1","parameterCategory":1,"la1":30.2991,"la2":30.254,"lo1":-89.0895,"lo2":-89.0444,"dy":0.0017,"dx":0.0017,"nx":28,"ny":28,"refTime":"2025-09-15T03:00:00:Z","depth":0,"parameterNumber":2,"parameterNumberName":"U-component_of_WINDS"},"data":[0,0,0,0,0,0,0,0,0,0,0,0,0,0,0,0,0,0,0,0,0,0,0,0,0,0,0,0,0,0,0,0,0,0,0,0,0,0,0,0,0,0,0,0,0,0,0,0,0,0,0,0,0,0,0,0,0,0,-1.9188,-1.9188,0,-1.9204,-1.9204,-1.9205,-1.9167,-1.9166,-1.9165,-1.9164,-1.918,-1.9182,-1.9183,0,0,0,0,0,0,0,0,0,0,0,0,0,-1.9125,-1.9127,-1.9188,-1.9188,-1.9188,-1.9204,-1.9204,-1.9205,-1.9167,-1.9166,-1.9164,-1.9163,-1.918,-1.9181,-1.9183,0,0,0,0,0,0,0,0,0,0,0,0,0,-1.9148,-1.9127,-1.9188,-1.9172,-1.9171,-1.9204,-1.9204,-1.9205,-1.9168,-1.9166,-1.9164,-1.9162,-1.9179,-1.9181,-1.9184,-1.9234,0,0,-1.9191,-1.9192,0,0,0,0,0,0,0,0,-1.9147,-1.915,-1.9174,-1.9173,-1.9172,-1.9182,-1.9188,-1.9214,-1.9168,-1.9169,-1.9164,-1.9162,-1.9182,-1.9184,-1.9191,-1.9234,-1.9235,-1.9191,-1.9192,-1.9193,-1.9194,0,0,0,0,0,0,0,-1.9145,-1.915,-1.9194,-1.9174,-1.9173,-1.9164,-1.9165,-1.9193,-1.9185,-1.9169,-1.9166,-1.9168,-1.9181,-1.9189,-1.9191,-1.9235,-1.9191,-1.9193,-1.9194,-1.9195,-1.9321,-1.9322,0,0,0,0,0,0,-1.9146,-1.9148,-1.9194,-1.9195,-1.9155,-1.9166,-1.9168,-1.918,-1.9185,-1.9184,-1.917,-1.9167,-1.9186,-1.9189,-1.9192,-1.925,-1.9193,-1.9195,-1.9197,-1.9319,-1.9321,-1.9323,0,0,0,0,0,0,-1.9145,-1.915,-1.9193,-1.9171,-1.9176,-1.9169,-1.9184,-1.9182,-1.9189,-1.9186,-1.9184,-1.9179,-1.9185,-1.9188,-1.9223,-1.925,-1.9197,-1.9199,-1.9316,-1.9319,-1.9322,-1.9369,0,0,0,0,0,0,-1.9143,-1.915,-1.9169,-1.9172,-1.9177,-1.9225,-1.9185,-1.9183,-1.9193,-1.9189,-1.9194,-1.9193,-1.9183,-1.922,-1.9226,-1.9253,-1.92,-1.9314,-1.9318,-1.9321,-1.9365,-1.9373,-1.938,0,0,0,0,0,-1.9141,-1.9181,-1.917,-1.9176,-1.9201,-1.9227,-1.923,-1.9218,-1.9196,-1.9215,-1.9212,-1.9193,-1.9247,-1.9224,-1.923,-1.9258,-1.9312,-1.9317,-1.9321,-1.9361,-1.9371,-1.9379,0,0,0,0,0,0,-1.9182,-1.9181,-1.9169,-1.9212,-1.9219,-1.922,-1.9244,-1.9228,-1.9243,-1.9238,-1.9222,-1.9224,-1.9262,-1.9264,-1.9238,-1.9307,-1.9276,-1.9282,-1.9304,-1.9314,-1.9321,-1.932,-1.9202,0,0,0,0,0,-1.9196,-1.9217,-1.9216,-1.9253,-1.9258,-1.925,-1.9261,-1.9251,-1.9259,-1.9262,-1.9262,-1.927,-1.9289,-1.9301,-1.9318,-1.9365,-1.9365,-1.9387,-1.9394,-1.9401,-1.9406,-1.943,-1.944,-1.9337,-1.9337,-1.9337,0,0,-1.9225,-1.9228,-1.9242,-1.9262,-1.9267,-1.9289,-1.9253,-1.9278,-1.9295,-1.9266,-1.9299,-1.9299,-1.9307,-1.9348,-1.9366,-1.9351,-1.9434,-1.9406,-1.9411,-1.9413,-1.9436,-1.9446,-1.9454,-1.934,-1.934,-1.9339,0,0,-1.929,-1.9294,-1.9326,-1.9331,-1.9339,-1.9334,-1.9342,-1.9345,-1.9344,-1.9377,-1.9356,-1.9375,-1.9407,-1.9414,-1.9421,-1.9489,-1.9471,-1.9495,-1.9534,-1.9558,-1.9566,-1.9573,-1.9597,-1.9606,-1.95,-1.95,-1.95,0,-1.9325,-1.9358,-1.9344,-1.9371,-1.938,-1.9355,-1.9387,-1.9393,-1.9406,-1.9413,-1.9395,-1.9436,-1.9439,-1.9481,-1.9498,-1.9505,-1.9513,-1.9494,-1.9566,-1.9573,-1.958,-1.9602,-1.9611,-1.9503,-1.9503,-1.9502,-1.9502,0,-1.9401,-1.9424,-1.9448,-1.9462,-1.9474,-1.9503,-1.9494,-1.9508,-1.9497,-1.9493,-1.9527,-1.9531,-1.9548,-1.9557,-1.9547,-1.9598,-1.9588,-1.9569,-1.9537,-1.9592,-1.9613,-1.9622,-1.9507,-1.9506,-1.9505,-1.9504,0,0,-1.9492,-1.9497,-1.9506,-1.9512,-1.9519,-1.9536,-1.9564,-1.9581,-1.9593,-1.9603,-1.9626,-1.9655,-1.9637,-1.9645,-1.9635,-1.9657,-1.9709,-1.9634,-1.9634,-1.9648,-1.9766,-1.9781,-1.9791,-1.9698,-1.97,-1.9701,-1.9765,0,-1.9555,-1.9603,-1.9592,-1.964,-1.9661,-1.9637,-1.9661,-1.9668,-1.9666,-1.9684,-1.9681,-1.9701,-1.9676,-1.9681,-1.9701,-1.9699,-1.9733,-1.9694,-1.9719,-1.9721,-1.9718,-1.9802,-1.9817,-1.9878,-1.9773,-1.9775,-1.9776,0,-1.9636,-1.9649,-1.9699,-1.9702,-1.9711,-1.9733,-1.9747,-1.9764,-1.9772,-1.9768,-1.9778,-1.9764,-1.9792,-1.976,-1.9799,-1.9772,-1.9782,-1.9783,-1.9785,-1.9787,-1.9751,-1.9806,-1.9897,-1.9906,-1.9789,-1.9788,-1.9787,0,-1.9697,-1.9727,-1.9761,-1.9766,-1.9771,-1.9787,-1.979,-1.9796,-1.9806,-1.9819,-1.9826,-1.9842,-1.9851,-1.9863,-1.9854,-1.9832,-1.9893,-1.9861,-1.9892,-1.9892,-1.9905,-1.9905,-1.9999,-1.9912,-1.9912,-1.9912,-1.9912,0,-1.977,-1.9801,-1.9788,-1.9809,-1.9843,-1.983,-1.9864,-1.9864,-1.987,-1.989,-1.9871,-1.989,-1.9876,-1.9895,-1.9888,-1.992,-1.9924,-1.9923,-1.992,-1.9924,-1.9925,-1.993,-1.9926,-1.9914,-1.9914,-1.9913,-1.9913,0,-1.9844,-1.9837,-1.9872,-1.9873,-1.9874,-1.99,-1.9901,-1.992,-1.9916,-1.9942,-1.9948,-1.9942,-1.9962,-1.9954,-1.9976,-1.9971,-2.0013,-2.0005,-2.0011,-2.0009,-2.004,-2.0037,-2.0141,-2.0154,-2.0059,-2.006,-2.006,0,-1.989,-1.9914,-1.9918,-1.993,-1.9934,-1.9954,-1.9965,-1.9953,-1.9965,-1.9975,-1.9993,-2.0012,-2.0026,-2.0061,-2.0058,-2.0075,-2.0067,-2.0103,-2.007,-2.0073,-2.0068,-2.0067,-2.0069,-2.0109,-2.0111,-2.0111,-2.0112,0,-1.9974,-1.9969,-1.9986,-2.0001,-2.0014,-2.0026,-2.0036,-2.0047,-2.0035,-2.0049,-2.007,-2.0081,-2.0104,-2.0123,-2.0138,-2.014,-2.0125,-2.0123,-2.013,-2.0135,-2.0137,-2.0136,-2.0029,-2.012,-2.0119,-2.0119,-2.0118,-2.0118,-2.0036,-2.0056,-2.0062,-2.0081,-2.0086,-2.0096,-2.0114,-2.0112,-2.013,-2.0147,-2.0138,-2.0162,-2.0169,-2.0187,-2.0192,-2.0211,-2.0197,-2.0209,-2.0212,-2.0215,-2.0219,-2.0134,-2.0214,-2.0214,-2.0213,-2.0213,-2.0213,0,-2.0119,-2.0121,-2.0139,-2.0153,-2.0168,-2.0151,-2.0161,-2.0175,-2.0196,-2.0204,-2.0218,-2.0242,-2.026,-2.026,-2.0276,-2.0292,-2.0285,-2.0297,-2.0295,-2.0296,-2.023,-2.0222,-2.0302,-2.0302,-2.0302,-2.0302,-2.0302,-2.0302,-2.0163,-2.0196,-2.0192,-2.0227,-2.0229,-2.0253,-2.026,-2.0269,-2.0274,-2.0302,-2.0317,-2.0316,-2.032,-2.0338,-2.0354,-2.0353,-2.036,-2.0375,-2.0371,-2.031,-2.0301,-2.0292,-2.0284,-2.0376,-2.0376,-2.0436,-2.0436,-2.0437]},{"header":{"parameterUnit":"m.s-1","parameterCategory":1,"la1":30.2991,"la2":30.254,"lo1":-89.0895,"lo2":-89.0444,"dy":0.0017,"dx":0.0017,"nx":28,"ny":28,"refTime":"2025-09-15T03:00:00:Z","depth":0,"parameterNumber":3,"parameterNumberName":"V-component_of_WINDS"},"data":[0,0,0,0,0,0,0,0,0,0,0,0,0,0,0,0,0,0,0,0,0,0,0,0,0,0,0,0,0,0,0,0,0,0,0,0,0,0,0,0,0,0,0,0,0,0,0,0,0,0,0,0,0,0,0,0,0,0,3.7603,3.7603,0,3.763,3.763,3.7631,3.7591,3.759,3.7588,3.7587,3.7611,3.7613,3.7615,0,0,0,0,0,0,0,0,0,0,0,0,0,3.7513,3.7515,3.7603,3.7603,3.7604,3.763,3.763,3.7631,3.7591,3.759,3.7588,3.7586,3.7611,3.7613,3.7615,0,0,0,0,0,0,0,0,0,0,0,0,0,3.7547,3.7516,3.7603,3.7587,3.7586,3.763,3.763,3.7631,3.7592,3.759,3.7587,3.7586,3.761,3.7613,3.7616,3.7675,0,0,3.7625,3.7626,0,0,0,0,0,0,0,0,3.7545,3.7551,3.7589,3.7588,3.7587,3.7605,3.7608,3.7646,3.7592,3.7589,3.7587,3.7585,3.7611,3.7613,3.7623,3.7676,3.7677,3.7625,3.7627,3.7628,3.7629,0,0,0,0,0,0,0,3.7543,3.7549,3.7613,3.759,3.7588,3.7577,3.758,3.7615,3.7611,3.7589,3.7587,3.7591,3.761,3.762,3.7623,3.7678,3.7625,3.7627,3.7629,3.763,3.7779,3.7781,0,0,0,0,0,0,3.7543,3.7547,3.7613,3.7614,3.7561,3.7581,3.7584,3.7601,3.7611,3.761,3.7592,3.7589,3.7616,3.762,3.7624,3.7693,3.7628,3.7631,3.7632,3.7777,3.778,3.7782,0,0,0,0,0,0,3.7541,3.7549,3.7611,3.758,3.7587,3.7585,3.7605,3.7603,3.7613,3.7613,3.7612,3.7604,3.7615,3.762,3.7663,3.7693,3.7632,3.7634,3.7775,3.7778,3.7781,3.7831,0,0,0,0,0,0,3.7539,3.7549,3.7572,3.7581,3.7589,3.7651,3.7607,3.7605,3.7619,3.7614,3.7624,3.7623,3.7614,3.7658,3.7665,3.7696,3.7637,3.7772,3.7776,3.778,3.7827,3.7836,3.7844,0,0,0,0,0,3.7536,3.7585,3.7574,3.7582,3.7618,3.7653,3.7657,3.7646,3.7622,3.7644,3.7644,3.7623,3.7689,3.7663,3.7671,3.7702,3.777,3.7775,3.778,3.7823,3.7834,3.7844,0,0,0,0,0,0,3.7579,3.7586,3.7573,3.7627,3.764,3.7646,3.7674,3.7659,3.7677,3.7672,3.7657,3.7659,3.7705,3.7708,3.7679,3.776,3.7725,3.7732,3.7756,3.7766,3.7774,3.7772,3.7639,0,0,0,0,0,3.7595,3.7623,3.7627,3.7674,3.7681,3.7677,3.7691,3.7682,3.7694,3.7699,3.7701,3.7713,3.7736,3.7752,3.7773,3.7828,3.7828,3.7854,3.7862,3.7869,3.7874,3.7902,3.7913,3.7799,3.7799,3.7799,0,0,3.7627,3.7635,3.7653,3.7683,3.7691,3.772,3.7681,3.7713,3.7733,3.7703,3.7743,3.7746,3.7758,3.7806,3.7828,3.7811,3.7906,3.7875,3.7881,3.7882,3.7908,3.7919,3.7928,3.7802,3.7801,3.7801,0,0,3.77,3.771,3.7749,3.7759,3.7773,3.777,3.778,3.7788,3.7789,3.783,3.7807,3.7831,3.7872,3.788,3.789,3.7968,3.7948,3.7975,3.8018,3.8045,3.8054,3.8062,3.8088,3.8097,3.7981,3.7981,3.7981,0,3.7739,3.7782,3.7771,3.7805,3.7817,3.7793,3.7831,3.7841,3.7861,3.787,3.7851,3.7901,3.7907,3.7957,3.7976,3.7985,3.7994,3.7973,3.8054,3.8062,3.8069,3.8093,3.8103,3.7984,3.7984,3.7983,3.7983,0,3.7827,3.7857,3.7887,3.7908,3.7924,3.796,3.7954,3.7972,3.7961,3.796,3.8001,3.8008,3.803,3.8041,3.8031,3.8089,3.8078,3.8057,3.8021,3.8083,3.8105,3.8115,3.7988,3.7987,3.7986,3.7986,0,0,3.7926,3.7942,3.7953,3.7961,3.7975,3.7997,3.8032,3.8054,3.8069,3.8084,3.8111,3.8147,3.8127,3.8138,3.8129,3.8153,3.8212,3.8129,3.8129,3.8142,3.8274,3.8288,3.8299,3.82,3.8202,3.8203,3.8273,0,3.7998,3.8058,3.805,3.8107,3.8134,3.8111,3.8141,3.8152,3.8152,3.8173,3.8173,3.8197,3.8171,3.8177,3.82,3.82,3.8238,3.8195,3.8223,3.8224,3.8219,3.8312,3.8327,3.8392,3.8281,3.8283,3.8284,0,3.809,3.8108,3.8169,3.8178,3.8189,3.8216,3.8235,3.8257,3.8268,3.8266,3.8279,3.8266,3.8298,3.8264,3.8308,3.828,3.8291,3.8292,3.8295,3.8295,3.8256,3.8312,3.8413,3.8422,3.8298,3.8297,3.8296,0,3.8154,3.8194,3.8235,3.8244,3.8256,3.8275,3.8281,3.8291,3.8304,3.8321,3.833,3.835,3.8361,3.8376,3.8368,3.8344,3.8413,3.8378,3.841,3.8411,3.8424,3.8423,3.8526,3.8435,3.8435,3.8435,3.8435,0,3.8233,3.827,3.8264,3.8289,3.8329,3.832,3.836,3.8362,3.8371,3.8395,3.8377,3.84,3.8389,3.841,3.8404,3.8441,3.8446,3.8444,3.8442,3.8445,3.8445,3.845,3.8445,3.8438,3.8437,3.8436,3.8436,0,3.8311,3.8308,3.8351,3.8359,3.8362,3.8392,3.8398,3.8421,3.842,3.845,3.8457,3.8455,3.8479,3.8473,3.8499,3.8495,3.8541,3.8534,3.8537,3.8534,3.8566,3.8562,3.8674,3.8687,3.859,3.8591,3.8592,0,3.8361,3.8389,3.8401,3.8416,3.8423,3.8448,3.8462,3.8454,3.8469,3.8484,3.8505,3.8528,3.8546,3.8586,3.8586,3.8606,3.8597,3.8635,3.86,3.8602,3.8595,3.8593,3.8595,3.8641,3.8643,3.8643,3.8644,0,3.8449,3.8446,3.8468,3.849,3.8507,3.8523,3.8537,3.8551,3.8543,3.8561,3.8586,3.86,3.8628,3.865,3.8669,3.8673,3.8657,3.8656,3.8664,3.8666,3.8666,3.8664,3.8554,3.8652,3.8652,3.8651,3.8651,3.865,3.8513,3.8536,3.8548,3.8573,3.8583,3.8596,3.8618,3.862,3.8641,3.8663,3.8657,3.8685,3.8695,3.8718,3.8725,3.8747,3.8732,3.8744,3.8747,3.875,3.8753,3.8665,3.875,3.875,3.875,3.8749,3.8749,0,3.8598,3.8605,3.8628,3.8649,3.8668,3.8653,3.8668,3.8684,3.871,3.8721,3.8739,3.8768,3.879,3.8792,3.8812,3.8828,3.8821,3.8834,3.8831,3.8832,3.8765,3.8755,3.8839,3.8839,3.8839,3.8839,3.8839,3.8839,3.8645,3.8684,3.8682,3.8725,3.8731,3.876,3.8769,3.8781,3.879,3.8823,3.8842,3.8843,3.8851,3.8871,3.889,3.889,3.8897,3.8912,3.8909,3.8846,3.8837,3.8829,3.8819,3.8915,3.8915,3.8974,3.8974,3.8975]}]]